Wetbulb
69.56 67.53 65.62 62.68 62.71 63.13 63.44 64.30 63.64 63.40 64.06 64.48 64.52 64.54 64.45 64.45 65.12 64.36 64.30 64.39 64.26 64.12 63.77 63.47 63.39 63.61 62.61 61.30 60.65 59.61 58.35 57.28 55.07 56.97 56.90 59.08 59.23 60.01 60.55 60.89 60.50 60.08 60.51
70.04 66.75 64.94 63.63 63.59 63.85 64.08 64.34 63.90 64.04 63.90 64.24 64.28 64.43 64.68 65.14 65.05 64.54 64.48 64.98 64.41 63.83 63.97 63.56 63.39 63.35 62.78 62.45 60.60 60.42 59.57 58.51 57.22 56.30 58.81 57.62 58.63 60.74 60.67 59.51 59.21 59.73 60.27
69.70 65.79 64.56 63.59 63.70 64.13 64.30 64.04 63.66 63.86 63.90 64.57 65.14 64.94 64.59 64.41 64.15 64.39 64.39 64.19 64.10 63.93 63.97 63.48 63.31 62.40 61.70 61.60 61.07 60.59 60.67 60.24 58.21 57.18 57.50 59.51 59.39 60.37 59.20 59.93 59.42 59.43 59.53
68.83 66.30 64.96 63.99 63.92 64.39 64.54 64.14 63.90 63.66 63.55 63.93 64.46 64.30 63.82 63.37 63.62 64.36 64.41 63.86 63.66 63.64 64.26 63.68 63.07 62.12 62.05 62.31 61.53 61.51 61.24 59.97 59.51 57.83 57.39 58.06 58.90 60.53 58.58 56.93 56.62 58.36 58.10
68.04 66.69 65.94 65.38 65.20 65.07 64.62 64.69 64.15 63.68 63.86 64.67 64.43 63.79 63.55 63.63 64.14 64.81 64.59 64.26 64.06 63.84 63.81 63.29 62.74 62.50 62.61 62.98 62.23 62.18 60.58 59.81 59.45 57.70 56.74 57.71 57.78 58.01 57.06 57.96 55.93 56.71 58.15
68.37 67.21 67.43 65.83 65.54 65.54 65.42 64.99 64.46 64.07 64.12 63.51 63.46 63.77 63.77 64.06 62.37 62.31 64.46 64.35 64.30 63.24 62.33 62.57 61.36 61.22 61.63 61.35 62.02 62.43 62.68 60.37 59.19 58.29 57.51 56.22 57.68 58.18 58.23 56.03 55.49 54.49 53.29
68.73 68.38 66.65 64.83 65.36 65.13 64.94 64.73 64.86 64.26 64.28 64.21 64.04 64.15 64.06 64.92 60.83 60.36 62.22 64.36 62.98 61.64 61.20 60.81 60.15 60.95 61.04 60.12 59.84 59.67 60.43 60.20 60.95 60.21 56.73 57.36 57.57 57.89 57.76 56.03 55.63 54.56 54.39
68.58 68.06 65.74 65.25 64.45 64.87 65.05 64.97 64.87 64.37 64.06 63.82 63.67 64.17 63.97 64.51 59.71 59.03 61.21 63.17 62.50 61.69 60.63 59.78 59.70 59.61 59.38 59.23 59.27 58.18 57.47 57.37 57.63 56.86 57.28 57.20 57.75 58.31 57.88 57.28 55.43 55.05 55.82
67.75 66.50 66.10 65.39 65.01 65.38 64.99 64.39 64.72 64.76 64.16 64.30 64.94 63.82 62.71 63.58 58.92 58.17 59.86 62.44 61.12 60.89 59.67 59.25 58.34 59.44 57.52 56.99 57.14 56.24 55.75 55.83 56.04 55.85 56.11 56.00 56.12 56.40 57.15 56.64 54.44 54.03 52.24
66.45 66.36 66.45 66.41 66.86 65.80 65.36 64.64 64.63 64.74 64.77 64.58 63.50 63.37 61.05 63.51 59.48 57.05 58.21 60.85 59.91 58.55 58.02 59.08 57.07 57.02 54.14 52.95 55.42 54.25 53.67 53.97 53.46 53.91 54.54 54.96 55.61 55.92 56.15 57.41 56.35 53.03 52.33
65.62 65.92 65.91 66.14 65.20 64.81 64.47 65.12 64.66 63.77 62.53 62.76 62.58 62.68 63.34 63.03 62.23 56.44 54.06 59.78 58.94 57.92 57.60 57.09 57.28 53.55 50.89 50.18 50.58 53.87 52.99 53.49 53.00 52.48 51.86 52.20 52.71 53.29 54.31 56.17 56.76 54.20 52.23
64.05 64.22 64.37 64.64 65.25 63.91 62.41 63.12 63.31 62.42 61.41 61.17 61.81 60.18 63.21 61.84 54.51 55.10 52.15 53.45 56.64 57.89 56.29 55.53 54.96 49.80 49.15 49.13 51.34 50.53 50.51 51.33 51.97 51.47 50.31 50.42 51.23 51.87 53.23 53.80 54.80 54.59 55.56
61.03 60.69 60.82 61.81 62.23 62.10 61.08 61.01 60.83 61.12 60.82 61.54 61.48 61.45 60.32 57.99 55.47 50.51 50.93 51.45 52.94 54.15 53.83 52.47 49.92 47.59 48.01 49.78 49.95 49.62 49.32 50.56 49.91 48.41 47.64 48.61 50.76 52.25 53.20 53.07 54.82 54.46 55.51
59.61 59.83 60.02 60.09 60.11 61.26 60.80 59.33 59.88 60.35 60.52 60.81 59.76 59.17 58.49 55.89 54.85 53.93 53.19 52.90 51.19 51.83 50.12 52.03 51.14 51.31 49.74 49.49 48.79 47.83 48.75 49.19 48.54 47.04 47.19 48.33 50.46 50.52 50.02 52.22 51.14 52.15 52.37
60.10 59.70 59.80 60.56 60.16 58.25 51.23 53.95 59.48 56.06 57.01 59.03 59.26 58.14 55.65 54.16 53.16 49.68 50.06 51.69 51.54 48.75 48.90 51.98 51.87 50.34 48.73 46.58 45.83 45.86 46.35 46.56 45.68 46.11 45.94 46.57 47.63 47.28 47.14 49.96 50.71 51.07 50.44
60.73 60.46 59.70 59.27 58.54 55.40 53.85 51.66 44.83 43.80 43.72 43.02 43.79 52.40 51.02 47.85 43.53 42.46 41.78 40.41 39.90 41.22 49.45 50.53 48.70 46.73 45.57 44.19 43.35 43.26 44.06 43.80 43.68 44.28 43.85 44.59 44.00 44.86 45.31 47.87 49.99 49.86 49.53
60.05 59.66 59.35 58.00 56.43 55.92 54.62 53.31 51.37 47.11 42.09 40.33 41.60 42.55 44.14 43.66 42.10 41.37 40.41 39.67 40.59 44.03 49.25 46.96 45.99 44.29 43.17 42.69 41.75 41.41 41.64 42.47 42.92 42.53 42.64 42.30 42.51 43.56 44.22 45.68 47.90 48.10 49.01
59.75 53.61 58.90 58.93 58.27 55.38 55.50 54.20 53.29 52.07 50.87 48.95 43.09 43.43 41.40 41.15 41.13 40.08 40.25 43.19 47.49 46.25 46.34 43.98 43.59 41.83 41.28 41.20 40.66 40.18 40.87 41.48 41.33 40.95 40.96 41.38 41.67 41.77 42.43 43.92 44.97 45.54 47.17
58.55 58.37 58.75 58.22 57.27 54.84 54.58 53.96 53.20 51.35 50.33 49.21 48.53 45.16 41.62 41.14 41.34 41.13 42.20 48.15 47.00 45.42 43.86 42.45 41.45 41.69 41.59 41.38 39.40 38.57 39.82 39.96 39.60 39.56 39.77 40.08 40.91 41.57 41.97 43.41 44.09 44.24 46.49
59.23 56.48 56.19 57.07 55.08 54.62 54.40 53.48 52.57 51.99 50.28 49.75 49.95 50.51 49.49 48.30 49.04 48.16 47.26 46.62 45.58 44.10 43.22 43.23 42.39 42.21 42.08 38.89 37.35 37.79 39.81 39.24 39.06 39.12 39.20 39.86 40.69 41.70 41.99 42.22 43.47 43.94 45.26
57.44 57.66 56.68 56.52 55.41 55.17 54.86 54.40 53.42 52.64 51.22 50.85 51.29 50.00 45.31 50.06 49.02 47.59 46.82 46.17 46.20 45.58 44.77 44.37 43.52 42.35 38.12 36.92 38.32 38.81 38.54 38.56 38.21 38.40 38.95 39.51 40.39 40.59 42.29 43.10 43.36 44.02 44.62
57.08 56.33 56.45 56.53 55.85 55.09 54.71 54.34 54.01 53.80 52.51 51.86 50.82 49.19 41.93 49.63 48.34 47.97 47.02 46.66 46.86 46.81 46.26 43.37 40.75 38.49 37.09 37.69 38.01 38.14 37.83 37.71 37.99 37.94 38.66 39.27 40.28 41.00 41.83 42.19 42.67 42.99 43.15
56.63 56.10 55.96 55.79 55.31 53.61 54.79 54.81 53.44 52.98 52.25 51.69 50.63 48.75 47.13 47.70 46.55 47.00 46.75 47.06 46.82 44.51 42.14 40.42 38.63 36.94 36.09 36.57 36.80 37.03 37.47 37.60 37.01 36.89 37.91 39.12 39.80 40.23 41.20 41.62 41.59 41.76 41.92
55.86 55.79 55.14 54.60 54.54 54.27 53.80 53.43 53.18 49.67 52.32 51.04 49.72 49.29 48.88 48.47 47.41 46.85 46.79 46.31 44.26 42.50 40.75 39.40 38.30 37.01 35.78 35.59 36.10 35.75 35.74 36.36 37.18 37.85 38.23 39.10 39.83 40.09 41.01 41.54 41.40 41.56 41.21
53.93 54.13 54.16 54.10 53.55 53.04 52.55 53.10 52.92 52.86 52.34 51.73 50.93 49.78 49.03 48.60 47.38 46.43 46.33 45.12 43.09 41.33 39.93 39.01 37.85 36.54 34.97 34.35 34.34 34.71 33.22 30.23 35.35 33.78 39.62 39.88 40.32 40.44 40.50 40.81 40.90 41.25 40.90
50.68 51.70 51.42 51.42 51.27 51.10 50.85 50.91 50.89 50.27 49.97 50.87 50.68 50.02 49.21 48.23 47.81 47.01 45.68 43.98 42.33 40.99 40.09 38.92 37.87 36.39 35.52 35.14 35.10 32.75 29.44 29.94 34.91 31.16 39.26 40.29 39.82 40.31 40.53 40.37 40.51 40.42 40.60
MSLP
1009.65 1010.48 1011.21 1011.95 1012.64 1013.23 1013.71 1014.18 1014.64 1015.07 1015.49 1015.95 1016.25 1016.64 1016.90 1017.03 1016.98 1017.14 1017.33 1017.46 1017.60 1017.60 1017.68 1017.85 1017.87 1017.91 1018.04 1018.23 1018.30 1018.44 1018.51 1018.82 1018.73 1017.36 1017.45 1016.98 1016.69 1016.32 1015.99 1015.82 1015.60 1015.20 1014.57
1008.70 1009.84 1010.49 1011.27 1012.11 1012.72 1013.22 1013.63 1014.11 1014.34 1014.66 1015.12 1015.83 1016.21 1016.42 1016.70 1016.81 1016.88 1016.89 1016.92 1017.06 1017.09 1017.20 1017.36 1017.20 1017.29 1017.44 1017.54 1017.74 1017.59 1017.75 1017.84 1018.13 1017.47 1016.65 1016.48 1016.17 1015.68 1015.44 1015.27 1014.86 1014.44 1013.99
1008.22 1009.18 1010.00 1010.63 1011.53 1011.93 1012.58 1013.10 1013.63 1014.13 1014.46 1014.88 1015.17 1015.55 1015.93 1015.96 1016.40 1016.34 1016.30 1016.55 1016.66 1016.62 1016.62 1016.72 1016.61 1016.89 1016.77 1016.79 1016.98 1017.04 1016.94 1016.93 1017.14 1017.09 1016.24 1015.78 1015.52 1015.04 1014.88 1014.50 1014.24 1013.78 1013.36
1007.38 1008.22 1008.96 1009.36 1009.85 1011.05 1012.34 1013.09 1013.48 1014.08 1014.46 1014.74 1014.77 1015.15 1015.56 1015.68 1015.69 1015.72 1015.77 1015.94 1016.01 1015.96 1015.83 1015.84 1015.98 1016.20 1016.18 1016.10 1016.23 1016.08 1016.13 1016.26 1016.32 1016.30 1015.90 1015.18 1014.99 1014.45 1014.39 1013.91 1013.17 1012.87 1012.32
1006.66 1007.31 1007.47 1008.25 1009.97 1010.58 1011.27 1012.66 1014.10 1013.77 1014.04 1014.79 1015.09 1015.26 1015.49 1015.08 1014.86 1015.11 1015.25 1015.26 1015.39 1015.34 1015.24 1015.15 1015.36 1015.45 1015.43 1015.44 1015.54 1015.41 1015.67 1015.63 1015.54 1015.41 1015.17 1014.53 1014.12 1013.79 1013.49 1013.00 1012.59 1011.94 1011.42
1006.00 1006.39 1007.74 1008.98 1010.23 1011.20 1012.33 1012.55 1013.83 1013.34 1013.62 1013.41 1014.20 1014.54 1014.94 1014.39 1014.19 1014.47 1014.87 1014.86 1014.81 1014.89 1014.84 1014.79 1014.84 1015.05 1015.13 1014.90 1014.99 1015.00 1014.97 1014.89 1014.79 1014.76 1014.54 1014.08 1013.39 1013.18 1012.96 1012.82 1012.19 1011.41 1009.87
1005.67 1006.58 1007.65 1008.63 1009.46 1010.31 1011.25 1012.30 1013.32 1013.35 1013.23 1013.09 1013.47 1014.05 1014.10 1013.98 1013.79 1014.02 1014.17 1014.21 1014.33 1014.24 1014.34 1014.55 1014.50 1014.54 1014.72 1014.69 1014.72 1014.46 1014.43 1014.35 1014.34 1014.12 1014.19 1013.58 1013.02 1012.54 1012.52 1012.21 1011.99 1011.32 1010.08
1005.32 1006.17 1007.14 1007.93 1008.70 1009.32 1009.72 1009.80 1010.89 1011.98 1012.20 1012.70 1013.05 1013.65 1013.43 1013.29 1013.58 1013.74 1013.82 1013.89 1013.81 1013.54 1013.80 1014.14 1014.30 1014.24 1014.27 1014.45 1014.49 1014.27 1014.25 1014.26 1014.16 1013.79 1013.92 1013.22 1012.68 1012.19 1012.11 1011.75 1011.22 1010.40 1009.30
1004.99 1005.69 1006.72 1007.50 1008.11 1008.74 1009.31 1009.15 1010.18 1011.18 1011.91 1012.56 1012.80 1013.36 1013.74 1013.47 1013.47 1013.35 1013.46 1013.62 1013.33 1013.30 1013.64 1013.84 1014.04 1014.04 1014.17 1014.35 1014.43 1014.24 1014.16 1014.03 1013.73 1013.40 1013.28 1012.81 1012.33 1011.71 1011.31 1011.16 1010.22 1009.60 1007.91
1004.89 1005.96 1006.27 1007.07 1007.99 1008.63 1009.51 1009.19 1009.73 1010.70 1011.64 1012.56 1013.04 1013.01 1013.03 1013.54 1013.41 1012.98 1012.80 1013.28 1012.95 1013.21 1013.68 1013.65 1013.83 1013.99 1014.22 1014.29 1014.32 1014.39 1014.46 1013.90 1013.79 1012.79 1012.42 1012.07 1011.68 1010.97 1010.46 1010.42 1009.69 1008.76 1007.25
1004.78 1006.00 1006.42 1006.97 1007.77 1008.33 1008.89 1009.30 1009.86 1010.57 1011.14 1011.02 1011.11 1010.86 1011.53 1012.85 1013.02 1012.96 1012.54 1012.65 1012.71 1013.17 1013.34 1013.41 1013.69 1013.74 1014.06 1014.18 1014.18 1014.34 1014.52 1014.09 1013.90 1013.31 1012.22 1011.64 1011.27 1010.67 1010.11 1009.50 1008.96 1008.35 1006.36
1004.83 1006.08 1006.70 1007.20 1007.87 1008.93 1009.30 1009.70 1009.90 1010.25 1010.63 1010.40 1010.28 1010.60 1010.69 1012.41 1012.92 1012.83 1012.41 1012.50 1012.62 1013.03 1013.06 1013.24 1013.32 1013.73 1013.91 1014.19 1014.11 1014.26 1014.23 1013.91 1013.81 1013.13 1012.15 1011.50 1011.02 1010.32 1009.76 1009.27 1008.37 1007.23 1005.53
1005.50 1006.69 1007.25 1007.48 1007.65 1008.34 1008.86 1009.46 1010.12 1009.62 1009.52 1010.23 1010.48 1010.95 1011.55 1012.23 1012.79 1012.55 1012.34 1012.47 1012.83 1012.93 1013.04 1013.23 1013.38 1013.72 1013.96 1014.15 1014.08 1014.21 1013.99 1013.90 1013.62 1013.01 1012.26 1011.49 1010.97 1010.25 1009.48 1008.58 1007.40 1006.15 1004.20
1005.74 1006.39 1006.60 1006.73 1007.24 1007.62 1007.63 1007.88 1008.47 1009.26 1009.27 1010.26 1010.31 1011.23 1011.39 1012.15 1012.56 1012.50 1012.58 1012.77 1012.87 1012.93 1013.13 1013.29 1013.45 1013.68 1013.98 1014.10 1014.06 1013.91 1013.82 1013.82 1013.36 1013.05 1012.18 1011.43 1010.82 1009.96 1009.20 1008.24 1007.12 1005.48 1003.65
1005.11 1005.31 1005.65 1006.69 1007.26 1008.22 1009.34 1009.41 1009.02 1009.28 1009.41 1009.64 1010.19 1010.55 1011.27 1012.02 1012.22 1012.38 1012.74 1012.98 1012.98 1013.13 1013.29 1013.45 1013.56 1013.76 1013.93 1013.98 1013.80 1013.87 1013.85 1013.43 1013.28 1012.85 1012.00 1011.41 1010.79 1009.97 1009.00 1008.11 1006.97 1005.63 1004.26
1005.07 1005.36 1005.86 1006.83 1007.74 1008.48 1009.20 1009.61 1010.07 1009.93 1009.63 1010.20 1010.27 1010.48 1011.57 1011.69 1012.18 1012.41 1012.55 1012.57 1012.98 1013.52 1013.49 1013.31 1013.58 1013.80 1013.73 1013.83 1014.03 1013.89 1013.52 1013.37 1013.23 1012.67 1012.00 1011.48 1010.87 1010.13 1009.18 1008.00 1007.06 1006.02 1004.65
1005.27 1005.74 1006.01 1006.77 1007.81 1008.18 1009.06 1009.14 1009.68 1010.55 1010.91 1010.72 1010.57 1010.84 1011.56 1011.98 1012.24 1012.40 1012.51 1012.77 1013.32 1013.61 1013.18 1013.51 1013.50 1013.60 1013.79 1014.07 1014.08 1014.00 1013.64 1013.52 1013.36 1012.60 1012.15 1011.53 1010.91 1010.19 1009.34 1008.29 1007.30 1006.41 1005.05
1005.34 1005.76 1006.46 1007.12 1007.39 1007.94 1008.65 1009.22 1009.89 1010.43 1010.79 1011.29 1011.55 1011.85 1012.10 1012.31 1012.51 1012.77 1013.11 1012.92 1013.18 1013.01 1013.15 1013.32 1013.35 1013.81 1014.19 1014.21 1014.10 1014.10 1013.83 1013.51 1013.15 1012.71 1012.24 1011.64 1010.94 1010.35 1009.41 1008.56 1007.80 1007.07 1005.82
1005.76 1006.18 1006.57 1006.92 1007.38 1007.96 1008.56 1009.23 1009.99 1010.44 1010.80 1011.08 1011.88 1012.52 1012.38 1012.52 1012.70 1012.83 1012.78 1012.63 1012.70 1012.95 1013.32 1013.42 1013.74 1013.92 1014.00 1014.16 1014.26 1014.18 1014.03 1013.66 1013.36 1012.93 1012.41 1011.83 1011.07 1010.36 1009.52 1008.82 1008.11 1007.36 1006.45
1006.03 1006.12 1006.64 1007.01 1007.43 1007.82 1008.25 1008.90 1009.54 1010.06 1010.40 1010.73 1011.30 1011.63 1011.88 1012.19 1012.23 1012.34 1012.59 1012.65 1012.85 1013.11 1013.52 1013.70 1014.01 1014.02 1014.10 1014.31 1014.32 1014.19 1013.89 1013.71 1013.41 1013.10 1012.65 1012.06 1011.31 1010.46 1009.66 1008.99 1008.27 1007.54 1006.81
1006.28 1006.53 1006.75 1007.04 1007.38 1007.69 1008.08 1008.49 1009.06 1009.66 1010.13 1010.48 1010.82 1011.00 1011.38 1011.90 1012.12 1012.30 1012.45 1012.52 1012.81 1012.98 1013.29 1013.72 1013.92 1014.01 1014.16 1014.31 1014.26 1014.04 1013.92 1013.79 1013.71 1013.46 1012.87 1012.20 1011.54 1010.69 1009.95 1009.30 1008.57 1008.00 1007.39
1006.36 1006.59 1006.85 1007.18 1007.39 1007.64 1008.11 1008.53 1008.93 1009.33 1009.67 1010.03 1010.53 1010.98 1011.60 1011.46 1011.80 1012.11 1012.33 1012.55 1012.76 1013.00 1013.27 1013.58 1013.84 1013.99 1014.13 1014.19 1014.05 1014.00 1013.98 1013.88 1013.81 1013.61 1013.04 1012.39 1011.72 1011.00 1010.22 1009.64 1008.95 1008.27 1007.54
1006.34 1006.67 1006.89 1007.22 1007.45 1007.75 1008.26 1008.63 1009.00 1009.17 1009.40 1009.80 1010.20 1010.61 1010.99 1011.28 1011.49 1011.85 1012.25 1012.47 1012.67 1012.91 1013.25 1013.62 1013.87 1014.02 1014.14 1014.15 1014.15 1014.19 1014.14 1014.01 1013.98 1013.83 1013.33 1012.68 1012.04 1011.39 1010.71 1010.01 1009.52 1008.90 1008.31
1006.46 1006.69 1006.87 1007.08 1007.30 1007.65 1008.14 1008.36 1008.56 1008.96 1009.14 1009.42 1009.72 1010.06 1010.52 1010.91 1011.33 1011.69 1012.02 1012.25 1012.53 1012.85 1013.21 1013.50 1013.66 1013.75 1013.89 1014.02 1014.12 1014.18 1014.19 1014.09 1013.94 1013.64 1013.41 1012.87 1012.27 1011.71 1011.14 1010.58 1010.08 1009.53 1009.18
1006.62 1006.71 1006.86 1007.07 1007.39 1007.78 1008.28 1008.45 1008.63 1008.85 1009.03 1009.27 1009.49 1009.73 1010.06 1010.55 1011.02 1011.44 1011.75 1012.01 1012.30 1012.68 1012.99 1013.21 1013.40 1013.56 1013.78 1013.91 1013.91 1013.91 1013.99 1014.10 1013.89 1013.72 1013.17 1012.85 1012.50 1012.08 1011.63 1011.12 1010.75 1010.50 1009.74
1006.44 1006.71 1006.93 1007.27 1007.55 1007.78 1008.17 1008.41 1008.54 1008.66 1008.76 1008.84 1008.97 1009.20 1009.53 1009.96 1010.36 1010.81 1011.29 1011.62 1011.93 1012.35 1012.64 1012.88 1013.11 1013.36 1013.59 1013.76 1013.78 1013.77 1013.89 1013.85 1013.66 1013.61 1013.22 1012.94 1012.67 1012.35 1012.06 1011.70 1011.24 1010.80 1010.75
Wind_Speed
15 13 12 11 11 9 10 9 8 7 7 6 6 6 5 6 5 4 4 4 4 4 4 6 7 6 6 5 5 5 5 5 6 5 5 4 6 8 8 8 9 10 9
14 13 14 12 11 11 10 10 9 9 7 8 7 6 6 6 5 5 5 4 5 5 6 6 8 4 7 7 6 8 7 7 5 12 6 6 7 9 10 10 9 9 10
13 13 13 13 13 13 11 9 8 8 8 7 8 8 8 7 5 6 5 5 6 7 7 7 8 6 7 6 7 7 7 6 7 7 10 7 6 8 9 9 9 10 10
14 15 16 17 18 13 7 5 7 7 7 8 8 7 6 6 6 6 5 5 6 7 7 8 7 7 8 6 6 8 7 7 7 7 9 10 9 8 7 10 10 8 10
14 16 19 16 11 12 11 5 5 6 7 5 5 5 7 6 6 6 6 6 6 8 7 7 6 8 12 10 4 7 7 7 6 7 9 9 9 9 10 8 10 11 10
14 16 10 10 9 9 9 7 8 9 10 7 10 8 9 5 7 8 7 5 7 7 7 5 4 7 8 10 10 12 11 8 9 5 8 10 13 10 9 9 10 12 13
12 10 10 13 14 14 12 15 13 11 9 12 10 9 9 5 8 9 9 5 7 6 6 5 5 3 5 5 9 9 8 8 11 8 9 11 11 13 11 12 12 13 15
11 11 13 15 15 15 17 17 15 14 14 8 7 9 6 4 8 12 9 6 6 6 5 5 6 6 5 6 7 5 5 6 5 4 7 11 12 13 13 12 14 15 15
11 12 13 15 17 15 15 13 11 6 4 4 2 4 2 5 15 10 6 5 5 5 4 5 5 5 7 6 3 5 7 8 6 9 11 14 19 22 20 11 11 12 15
10 10 12 12 11 5 5 6 6 5 5 4 3 2 3 10 10 13 5 3 3 3 4 3 5 6 4 1 2 2 6 7 10 12 11 12 12 13 19 12 11 13 15
11 9 9 8 6 6 3 3 5 7 8 9 8 7 3 11 9 12 8 4 3 2 3 3 2 3 4 2 2 1 4 7 12 9 9 9 10 10 10 10 12 12 16
13 11 10 9 8 7 7 4 6 8 7 6 3 2 2 5 4 9 7 4 5 3 3 2 1 1 4 1 1 5 7 8 5 6 7 8 8 9 10 12 16 17 16
13 11 9 9 10 11 12 10 6 7 6 4 3 4 2 2 2 5 7 7 5 2 1 2 5 5 4 1 3 6 6 4 5 6 7 7 7 9 12 12 15 17 18
13 12 10 10 9 9 6 8 7 4 5 5 4 4 3 3 4 2 3 2 2 1 2 2 2 5 4 3 2 3 3 3 5 6 6 7 8 8 9 10 12 13 13
13 11 9 4 4 4 6 5 3 2 1 4 3 4 4 4 3 3 3 3 2 1 1 2 3 2 0 2 3 3 4 4 5 6 6 7 8 9 9 9 10 12 10
9 7 5 4 4 5 4 4 10 7 5 2 3 5 3 6 8 5 5 5 4 6 3 2 2 1 1 3 3 4 3 7 6 6 6 7 8 8 10 10 9 9 11
5 4 4 5 5 5 4 4 5 7 9 9 9 11 7 8 7 6 3 4 7 7 1 2 1 2 2 1 2 3 4 5 7 6 6 7 8 8 10 9 9 9 10
4 3 3 3 4 5 5 5 4 5 5 4 8 6 6 8 7 9 9 7 3 3 2 1 2 2 1 1 3 3 4 5 5 6 7 7 7 8 9 9 8 9 11
2 2 3 2 3 6 6 6 5 5 5 6 4 1 2 4 7 6 3 2 1 1 1 2 2 2 1 1 3 3 4 4 5 6 6 7 8 8 8 8 8 11 12
2 3 3 3 5 5 5 6 6 5 6 6 6 6 5 3 2 1 2 2 2 2 2 2 2 2 1 1 2 2 2 3 4 5 6 7 7 7 9 9 8 8 8
1 3 5 4 5 5 5 6 5 5 6 6 5 4 7 4 4 3 2 2 2 3 3 3 3 2 2 1 1 1 2 3 3 4 6 7 7 8 8 8 8 7 8
2 2 2 3 3 4 4 4 4 6 7 7 5 4 7 3 3 3 3 3 3 3 3 3 3 2 1 1 1 1 2 3 3 4 6 7 7 7 8 8 8 8 8
2 3 2 2 3 5 4 4 5 5 5 6 6 5 4 4 2 4 4 4 4 4 4 3 3 3 2 2 1 0 2 3 3 3 5 6 7 7 7 7 8 8 8
3 3 3 3 4 4 4 4 4 4 5 5 5 5 6 6 6 6 5 4 4 5 4 4 3 4 4 3 2 2 2 3 3 4 5 5 6 7 6 7 7 9 7
3 4 3 4 4 4 4 5 5 6 6 6 6 6 7 7 7 7 6 5 6 6 6 5 4 5 5 5 4 4 3 5 5 5 3 4 5 6 6 6 7 7 10
3 3 2 2 2 4 4 5 6 6 7 7 7 7 8 8 8 8 7 7 7 6 6 5 5 7 7 5 4 3 3 5 4 4 3 3 4 4 4 6 9 6 8
Wind_Direction
194 189 183 184 184 174 180 187 187 176 184 188 185 198 211 220 209 202 218 234 233 248 236 232 244 218 235 232 224 226 222 196 245 265 237 271 283 286 295 295 295 296 295
195 184 187 176 180 182 191 186 176 183 180 180 186 202 210 225 223 214 222 225 229 236 246 244 253 239 236 234 226 229 234 218 220 270 282 269 266 285 291 288 285 290 287
186 181 182 180 184 190 191 181 182 179 187 189 191 201 208 207 218 222 217 228 227 228 232 234 247 238 246 234 230 240 241 244 224 245 274 270 273 287 287 278 276 278 276
185 187 189 187 191 180 174 183 188 193 186 202 204 206 207 212 211 228 219 228 240 245 242 237 235 232 248 250 244 240 245 245 242 248 265 272 272 275 265 278 283 278 287
189 191 201 193 158 160 147 125 255 189 197 201 216 221 230 204 219 231 229 237 246 253 241 235 234 236 242 239 234 258 242 245 247 255 269 279 281 276 275 289 287 292 284
196 206 182 155 149 143 107 352 235 227 214 177 215 207 221 219 222 239 240 246 247 241 256 254 243 261 272 281 271 256 249 250 257 254 274 276 280 283 287 281 294 302 298
195 191 156 153 156 154 157 182 229 235 232 220 209 208 220 218 222 243 229 229 245 237 237 254 277 261 286 295 288 287 283 273 250 265 272 272 284 284 286 283 283 282 282
183 172 160 163 168 175 189 198 199 219 226 209 194 217 208 206 246 246 222 227 247 243 230 233 246 279 278 281 282 288 287 290 290 285 261 276 281 282 275 279 281 279 278
178 170 166 171 176 186 214 194 198 193 186 213 180 184 219 276 245 259 263 255 261 260 230 226 230 262 277 298 279 305 309 304 302 291 279 278 282 282 275 284 278 286 286
166 164 172 178 194 193 215 150 124 134 146 169 160 168 181 268 267 266 234 232 239 236 220 242 251 269 318 154 267 309 297 307 313 314 314 307 296 293 292 277 278 285 289
126 136 144 143 132 119 118 121 124 135 161 175 179 168 228 254 271 274 222 193 200 204 232 250 264 292 192 146 149 263 270 305 304 307 313 315 314 314 305 297 290 287 287
116 120 114 114 118 123 125 144 170 177 202 220 204 310 229 213 260 243 185 166 161 195 222 242 245 279 181 179 328 292 299 312 300 312 319 319 314 308 302 302 295 288 281
106 104 116 130 140 156 166 176 207 201 155 158 168 227 225 139 197 130 133 141 149 181 359 288 276 275 184 338 335 339 331 326 328 328 320 313 305 298 299 300 296 293 294
123 139 155 160 170 188 174 170 179 181 128 204 163 218 173 181 197 155 119 113 78 73 4 308 238 145 111 60 4 341 337 330 333 318 312 309 301 311 311 305 307 309 315
160 164 167 155 145 88 42 10 96 75 144 161 177 176 154 206 204 143 158 194 197 167 185 145 133 153 272 356 351 344 331 351 342 328 325 319 311 313 315 315 313 316 323
164 167 139 122 109 129 149 113 54 49 49 239 148 116 111 101 126 164 203 207 200 211 197 150 163 167 30 8 343 332 341 349 341 332 329 321 318 319 318 320 322 324 325
123 141 153 138 150 141 163 159 129 50 59 52 93 106 112 136 94 55 38 164 188 189 147 154 128 46 44 359 342 335 329 334 322 338 333 328 327 320 326 326 329 327 327
184 138 131 170 150 162 180 166 141 162 149 114 38 46 101 119 133 142 156 140 139 78 99 93 84 104 111 352 347 329 323 337 343 341 335 334 333 331 331 335 333 330 325
207 217 209 168 146 147 147 142 159 152 144 129 119 173 168 131 124 112 116 91 72 61 110 128 141 155 135 324 319 315 318 339 343 339 341 338 336 337 335 335 324 326 333
211 161 146 152 149 146 147 152 152 161 161 167 180 180 159 154 175 131 67 86 118 141 159 163 183 171 181 291 306 315 337 348 357 349 344 339 338 338 343 341 340 335 343
139 159 160 150 159 165 156 155 155 166 179 185 197 172 165 180 183 187 176 163 184 184 180 195 193 178 168 242 300 34 5 353 356 342 341 343 344 342 345 350 350 352 352
172 162 160 171 158 158 156 156 166 180 179 179 177 165 176 190 175 200 190 197 208 204 193 173 164 162 169 191 135 71 4 352 350 347 345 344 344 345 349 358 358 0 359
190 171 163 169 169 139 156 168 179 174 172 182 181 175 175 198 189 198 204 202 196 178 166 164 161 169 167 162 155 19 342 351 340 330 336 342 344 349 353 359 2 5 3
155 159 152 149 148 155 173 180 174 185 191 191 187 190 196 206 206 211 202 190 180 178 173 169 178 178 173 187 206 235 268 303 311 317 327 337 347 351 0 6 12 7 15
147 136 139 155 160 164 181 193 200 208 208 211 213 210 206 204 205 206 194 192 186 182 183 177 173 177 188 198 218 239 269 297 294 310 325 351 6 11 13 13 18 35 24
101 111 130 154 170 167 185 198 210 208 212 213 211 209 207 207 205 199 189 191 189 190 186 186 183 184 184 193 214 250 301 314 337 332 332 14 24 26 28 31 29 30 43